#timestamp,LO_Frequency,Hit,StdDev 
1599868815.0,286046998.9,N
1599868815.9,286046998.9,N
1599868835.8,286046996.5,N
1599868855.6,286046997.5,N
1599868875.4,286046997.1,N
1599868895.3,286046999.6,N
1599868915.1,286047000.4,N
1599868935.9,286046998.0,N
1599868955.7,286046994.9,Y
1599868975.5,286047001.9,P
1599868995.4,286047002.3,N
1599869015.2,286046998.5,N
1599869035.1,286046998.3,N
1599869036.0,286046998.3,N
1599869055.8,286046999.1,N
1599869075.6,286046997.0,N
1599869095.5,286046996.9,N
1599869115.3,286046999.5,N
1599869135.1,286047000.7,N
1599869155.9,286047001.8,N
1599869175.7,286047003.7,N
1599869195.6,286047005.5,N
1599869215.4,286047005.0,N
1599869235.2,286047008.8,Y
1599869255.1,286047007.9,P
1599869256.0,286047007.9,N
1599869275.8,286047010.5,N
1599869295.7,286047012.2,Y
1599869315.5,286047004.9,P
1599869335.3,286047004.8,P
1599869355.2,286047006.8,P
1599869375.0,286047009.2,Y
1599869375.9,286047009.2,P
1599869395.8,286047007.5,P
1599869415.6,286047005.4,P
1599869435.4,286047003.1,N
1599869455.3,286047005.8,N
1599869475.1,286047005.2,N
1599869495.8,286047009.2,Y
1599869515.7,286047002.8,P
1599869535.5,286047002.2,N
1599869555.4,286047003.5,N
1599869575.2,286047004.0,N
1599869595.0,286047003.4,N
1599869595.9,286047003.4,N
1599869615.8,286047003.2,N
1599869635.6,286047004.0,Y
1599869655.5,286046999.3,P
1599869675.3,286047000.8,N
1599869695.1,286047001.2,N
1599869715.9,286046998.7,N
1599869735.7,286046998.1,N
1599869755.5,286047003.2,N
1599869775.4,286047002.4,N
1599869795.2,286047002.4,N
1599869815.1,286047004.3,N
1599869816.0,286047004.3,N
1599869835.8,286047005.9,N
1599869855.7,286047008.6,Y
1599869875.5,286047005.6,P
1599869895.3,286047006.8,P
1599869915.2,286047012.1,P
1599869935.0,286047012.4,Y
1599869935.9,286047012.4,P
1599869955.8,286047002.9,N
1599869975.6,286047005.5,N
1599869995.4,286047006.7,N
1599870015.3,286047006.9,N
1599870035.1,286047007.5,N
1599870055.8,286047004.8,N
1599870075.7,286047003.4,N
1599870095.5,286047005.1,N
1599870115.4,286047004.8,N
1599870135.2,286047005.5,N
1599870155.0,286047006.4,N
1599870155.9,286047006.4,N
1599870175.8,286047007.0,Y
1599870195.6,286047003.9,P
1599870215.4,286047000.3,N
1599870235.3,286047000.9,N
1599870255.1,286046998.3,N
1599870275.9,286046996.5,N
1599870295.7,286046997.3,N
1599870315.5,286047001.3,N
1599870335.4,286047001.9,N
1599870355.2,286047000.0,N
1599870375.1,286047000.2,N
1599870376.0,286047000.2,N
1599870395.8,286047002.3,N
1599870415.6,286047001.7,N
1599870435.5,286047004.0,N
1599870455.3,286047003.3,N
1599870475.1,286047003.7,N
1599870495.9,286047006.7,N
1599870515.7,286047005.1,N
1599870535.5,286047006.3,N
1599870555.4,286047010.8,Y
1599870575.2,286047008.6,P
1599870595.1,286047006.7,N
1599870596.0,286047006.7,N
1599870615.8,286047006.0,N
1599870635.6,286047008.0,Y
1599870655.5,286047002.6,P
1599870675.3,286047002.7,N
1599870695.2,286046998.7,N
1599870715.9,286047001.0,N
1599870735.7,286046998.4,N
1599870755.6,286046998.6,N
1599870775.4,286046998.3,N
1599870795.2,286046998.9,N
1599870815.1,286046999.6,N
1599870816.0,286046999.6,N
1599870835.8,286046995.7,N
1599870855.7,286046995.7,N
1599870875.5,286046995.5,N
1599870895.3,286046999.2,N
1599870915.2,286046998.2,N
1599870935.0,286047000.7,N
1599870935.9,286047000.7,N
1599870955.8,286046997.7,N
1599870975.6,286046995.2,N
1599870995.4,286046999.2,N
1599871015.3,286047001.0,N
1599871035.1,286046998.9,N
1599871055.8,286046999.5,N
1599871075.7,286046996.9,N
1599871095.5,286047000.9,N
1599871115.4,286047003.9,N
1599871135.2,286047001.7,N
1599871155.0,286047004.8,N
1599871155.9,286047004.8,N
1599871175.8,286047010.8,Y
1599871195.6,286047009.9,P
1599871215.5,286047009.6,N
1599871235.3,286047014.8,P
1599871255.1,286047019.9,Y
1599871275.9,286047010.0,P
1599871295.7,286047008.4,P
1599871315.5,286047010.8,P
1599871335.4,286047011.0,Y
1599871355.2,286047001.9,P
1599871375.1,286047001.5,N
1599871376.0,286047001.5,N
1599871395.8,286047002.9,N
1599871415.6,286047003.7,N
1599871435.5,286047003.0,N
1599871455.3,286047005.2,N
1599871475.1,286047005.0,N
1599871495.9,286047006.9,N
1599871515.7,286047009.1,Y
1599871535.6,286047001.7,P
1599871555.4,286047004.0,P
1599871575.2,286047003.1,N
1599871595.1,286047005.6,Y
1599871596.0,286047005.6,P
1599871615.8,286047004.1,P
1599871635.7,286047006.0,P
1599871655.5,286047006.0,Y
1599871675.3,286047004.2,P
1599871695.2,286047004.8,P
1599871715.0,286047007.4,P
1599871715.9,286047007.4,Y
1599871735.8,286047000.7,P
1599871755.6,286046998.7,N
1599871775.4,286046996.7,N
1599871795.3,286046998.7,N
1599871815.1,286047003.5,N
1599871835.8,286047003.0,N
1599871855.7,286047001.5,N
1599871875.5,286047005.9,N
1599871895.4,286047003.2,N
1599871915.2,286047004.1,N
1599871935.0,286047001.2,N
1599871935.9,286047001.2,N
1599871955.8,286046996.7,N
1599871975.6,286046997.8,N
1599871995.4,286046995.3,N
1599872015.3,286046992.9,N
1599872035.1,286046991.1,N
1599872055.9,286046989.4,N
1599872075.7,286046989.5,N
1599872095.5,286046989.6,N
1599872115.4,286046988.0,N
1599872135.2,286046986.6,N
1599872155.1,286046982.8,N
1599872156.0,286046982.8,N
1599872175.8,286046983.8,N
1599872195.6,286046980.6,N
1599872215.5,286046981.1,N
1599872235.3,286046981.8,N
1599872255.2,286046980.8,N
1599872275.9,286046980.7,N
1599872295.7,286046982.3,N
1599872315.6,286046986.4,N
1599872335.4,286046988.8,N
1599872355.2,286046991.3,N
1599872375.1,286046993.4,N
1599872376.0,286046993.4,N
1599872395.8,286047001.1,N
